Location: 81360 Arifat, France
(43.7204°N, 2.3408°E)
Time: 08:38:28
(UTC+01:00)

Courier 1B - Pass Details

Date: 07 December 2025
Orbit: 962 x 1208 km, 28.3° (Epoch: 18 January)

Event Time Altitude Azimuth Distance (km) Brightness Sun altitude
Exits shadow 06:59:04 - 243° (WSW) 3,416 9.9 -12.5°
Reaches altitude 10° 07:03:22 10° 212° (SSW) 2,802 9.8 -11.8°
Maximum altitude 07:04:37 11° 201° (SSW) 2,777 9.9 -11.6°
Drops below altitude 10° 07:05:53 10° 191° (S) 2,831 10.1 -11.4°
Sets 07:11:37 0° 154° (SSE) 3,860 11.4 -10.4°
